Terminal Aerodrome Forecast
Issued by NWS Billings, MT

Home | Current Version | Previous Version | Text Only | Print | Product List | Glossary Off
Versions: 1 2 3 4 5 6 7 8 9 10 11 12 13 14 15 16 17 18 19 20 21 22 23 24 25 26 27 28 29 30 31

000
FTUS45 KBYZ 051724
TAFMLS
TAF
KMLS 051724Z 0518/0618 36013KT 2SM -SHRA BKN027 OVC040
      TEMPO 0518/0522 4SM FU SCT025 OVC080
     FM060100 01013KT P6SM VCSH BKN050=

USA.gov is the U.S. government's official web portal to all federal, state and local government web resources and services.